STARLINK-3096, 49131

Orbit data source: Space-Track

STARLINK-3096, 49131 is a payload satellite owned by SpaceX/Seattle (US) in LEO that was launched on Tue, 14 Sep 2021 UTC via an FALCON 9 launch vehicle from the Air Force Western Test Range (AFWTR). Payload-class satellites include a variety of spacecraft equipped with specific instruments for various scientific and technological missions. These include communications satellites like Starlink; space stations such as the ISS; scientific satellites like the Hubble; Earth observation satellites from companies like Planet Labs, Umbra, and HawkEye 360; GPS; miniature CubeSats for education and research; and military/defense satellites.

Loading next visibility...
Identifier
49131, 2021-082B
Orbit
LEO
Country
Flag of USUS
Related business
Manufacturer
SpaceX/Seattle
Mission
Operational Commercial Communications
Bus & Motor
STARLINK, Unknown motor
Mass
297 kg wet, ~275 kg dry
Launch date (UTC)
2021-09-14 (4 years ago)
Launch vehicle
FALCON 9
Launch site
Air Force Western Test Range (AFWTR)
Object type
Payload
Rocket body
Debris
Shape & HBR
Box + 1 Pan, 10.1 m
Radar Cross Section
13.562 m², Large (>1 m²)

Expand to show TLE details & history
Last TLE update: 5 hours ago

TLE from 5 hours ago
0 STARLINK-3096
1 49131U 21082B   26035.84672998  .00000272  00000-0  30544-4 0  9991
2 49131  70.0010 337.2548 0002757 274.3028  85.7815 14.98331178242048
Epoch: 2026-02-04T20:19Z
TLE epoch observation values (Epoch: 2026-02-04T20:19:17.470Z)
Latitude
-0.0001°
Longitude
-102.57548°
Altitude
574.336 km
Speed
7.574 km/s
True Right ascension
22h 29m 01s
True Declination
0° 00' 00"
Sunlit
Object was in daylight at epoch
Visualization orbit readout
Latitude
Unknown
Longitude
Unknown
Altitude
Unknown
Speed
Unknown
Apparent Right ascension
Unknown
Apparent Declination
Unknown
Sunlit
N/A
Visualization observer readout
Local Sidereal Time
03:04:54
Azimuth
Unknown
Elevation
Unknown
Doppler factor
Unknown
Orbital elements
Apogee altitude
571.916 km
Perigee altitude
568.085 km
Semi-major axis
6,948.137 km
Eccentricity
0.00028
Inclination
70.001°
RAAN
337.2548°
Arg. of periapsis
274.3028°
True anomaly
85.81301°
Mean anomaly
85.7815°
Eccentric anomaly
85.79725°
Mean motion
3.74749 °/min
Orbital period
96.06 mins
BSTAR
0.000030544
Loading maneuver chart data...
Computing Atmospheric mass density...
Loading historical data...
Loading historical data...
Loading historical data...
Loading historical data...
Loading historical data...
Loading historical data...
Loading historical data...

Documentation

Showing up to 5 results
|